Location: Albany
(35.0170°S, 117.8920°E)
Time: 02:03:54
(UTC+08:00)

Explorer 7 - Pass Details

Date: 26 January 2021
Orbit: 484 x 677 km, 50.3° (Epoch: 01 March)

Event Time Altitude Azimuth Distance (km) Brightness Sun altitude
Rises 16:34:29 0° 276° (W) 3,036 11.7 32.1°
Reaches altitude 10° 16:37:13 10° 263° (W) 2,117 11.4 31.5°
Maximum altitude 16:41:18 26° 206° (SSW) 1,329 9.4 30.7°
Drops below altitude 10° 16:45:18 10° 150° (SSE) 2,068 9.6 29.9°
Sets 16:47:57 0° 136° (SE) 2,951 10.2 29.3°
